STARLINK-34424 (64295 NORAD) Tracking and Keplerian Element Data

This shows tracking and keplerian element data for the satellite.

Feedback or suggestion? Click here.




ElementValue
Catalog64295
NameSTARLINK-34424
Epoch Orbit3092
Epoch Day354.17665253
Epoch Year2025
RAAN35.1138
Inclination70.0016
Eccentricity0.0003404
Argument of Perigee266.902
Mean Anonmoly93.175
Mean Motion14.98333463
Decay Rate4.179E-05
L11 64295U 25123E 25354.17665253 .00004179 00000+0 35779-3 0 9997
L22 64295 70.0016 35.1138 0003404 266.9020 93.1750 14.98333463 30922



Live tracking and technical data element details for STARLINK-34424 (NORAD 64295). STARLINK-34424 can be tracked NOW for your location showing map with azimuth and elevation plus other details from your city location.







IsCatalogInMostPopularTable: catalog: 64295, numindb: 10
Update: records affected: 1



GetName: 64295 STARLINK-34424

Hit Count: updated at: Tue, 21 Apr 2026 20:40:06 GMT